sat.trackr.live / text

‹ back to catalog

STARLINK-4171

NORAD 52878 · 2022-062BA

PAYLOAD ACTIVE UNKNOWN

§ Identity

Operator
Country
US
Launch date
2022-06-17
Launch site
AFETR
Launch vehicle
Mass (kg)
RCS (m²)

Purposes: comms

External: N2YO · Heavens-Above · Gunter

§ Orbital elements

Epoch: 2026-09-19T13:44:31.347456Z

Period
93.85 min
Inclination
53.1588°
Eccentricity
0.0001354
Mean motion
15.34386139 rev/d
Perigee alt
461.8 km
Apogee alt
463.7 km
Semi-major
6,840.9 km
B*
4.0332e-5
RAAN
207.7200°
Arg perigee
92.4946°
Mean anomaly
267.6212°
Rev number
23,555

§ Raw data

STARLINK-41711 52878U 22062BA  26262.57258504  .00000986  00000+0  40332-4 0  99942 52878  53.1588 207.7200 0001354  92.4946 267.6212 15.34386139235556

JSON: /api/v1/satellites/52878 · /tle

For live sub-satellite position, see the globe view (requires WebGL).

§ Visibility from observer

Set your observer location to see the next 7 days of passes ≥ 10°. The values pass through the URL so the page stays shareable.

No JS? Fill the form by hand. The geolocation button needs JavaScript.